| time (UTC) | temp C | wind direction | speed KPH | gust KPH | rain 1hr cm | rain 24hr cm | rain mn cm | humidity % | barometer mb |
| 20260906183851 | 22 | 192 | 0.0 | 1.6 | 0.00 | 0.00 | 0.00 | 90 | 1019.6 |
| 20260906183348 | 22 | 173 | 0.0 | 1.6 | 0.00 | 0.00 | 0.00 | 89 | 1020.0 |
| 20260906182848 | 22 | 193 | 0.0 | 1.6 | 0.00 | 0.00 | 0.00 | 89 | 1019.6 |
| 20260906182343 | 22 | 171 | 0.0 | 1.6 | 0.00 | 0.00 | 0.00 | 88 | 1019.2 |
| 20260906181843 | 22 | 127 | 0.0 | 1.6 | 0.00 | 0.00 | 0.00 | 88 | 1019.2 |
| 20260906181340 | 22 | 167 | 0.0 | 1.6 | 0.00 | 0.00 | 0.00 | 87 | 1019.2 |
| 20260906180835 | 22 | 88 | 3.2 | 4.8 | 0.00 | 0.00 | 0.00 | 87 | 1018.9 |
| 20260906180330 | 22 | 142 | 0.0 | 3.2 | 0.00 | 0.00 | 0.00 | 87 | 1018.9 |
| 20260906175827 | 22 | 106 | 1.6 | 4.8 | 0.00 | 0.00 | 0.00 | 87 | 1018.9 |
| 20260906175323 | 22 | 140 | 4.8 | 11.3 | 0.00 | 0.00 | 0.00 | 87 | 1018.9 |
| 20260906174822 | 22 | 102 | 1.6 | 4.8 | 0.00 | 0.00 | 0.00 | 87 | 1018.9 |
| 20260906174321 | 22 | 85 | 1.6 | 8.0 | 0.00 | 0.00 | 0.00 | 86 | 1018.8 |
| 20260906173816 | 22 | 143 | 3.2 | 4.8 | 0.00 | 0.00 | 0.00 | 86 | 1019.1 |
| 20260906173312 | 22 | 129 | 3.2 | 11.3 | 0.00 | 0.00 | 0.00 | 86 | 1019.3 |
| 20260906172811 | 22 | 148 | 3.2 | 4.8 | 0.00 | 0.00 | 0.00 | 86 | 1018.9 |
| 20260906172308 | 22 | 80 | 3.2 | 8.0 | 0.00 | 0.00 | 0.00 | 86 | 1019.3 |
| 20260906171808 | 22 | 106 | 1.6 | 9.7 | 0.00 | 0.00 | 0.00 | 86 | 1019.4 |
| 20260906171303 | 22 | 134 | 1.6 | 3.2 | 0.00 | 0.00 | 0.00 | 86 | 1019.1 |
| 20260906170758 | 22 | 79 | 4.8 | 8.0 | 0.00 | 0.00 | 0.00 | 86 | 1018.9 |
| 20260906170254 | 22 | 106 | 4.8 | 11.3 | 0.00 | 0.00 | 0.00 | 85 | 1018.8 |
| 20260906165750 | 22 | 130 | 4.8 | 11.3 | 0.00 | 0.00 | 0.00 | 86 | 1019.1 |
| 20260906165250 | 23 | 138 | 4.8 | 9.7 | 0.00 | 0.00 | 0.00 | 85 | 1019.2 |
| 20260906164749 | 23 | 121 | 4.8 | 9.7 | 0.00 | 0.00 | 0.00 | 85 | 1019.2 |
| 20260906164244 | 23 | 122 | 4.8 | 11.3 | 0.00 | 0.00 | 0.00 | 84 | 1019.2 |
| 20260906163740 | 23 | 76 | 4.8 | 8.0 | 0.00 | 0.00 | 0.00 | 84 | 1018.8 |
| 20260906163236 | 23 | 97 | 1.6 | 8.0 | 0.00 | 0.00 | 0.00 | 85 | 1018.9 |
| 20260906162733 | 23 | 104 | 4.8 | 12.9 | 0.00 | 0.00 | 0.00 | 85 | 1018.8 |
| 20260906162227 | 23 | 114 | 4.8 | 12.9 | 0.00 | 0.00 | 0.00 | 86 | 1018.7 |
| 20260906161722 | 22 | 138 | 6.4 | 9.7 | 0.00 | 0.00 | 0.00 | 87 | 1018.8 |
| 20260906161221 | 22 | 92 | 4.8 | 12.9 | 0.00 | 0.00 | 0.00 | 87 | 1019.2 |
| 20260906160720 | 22 | 87 | 4.8 | 8.0 | 0.00 | 0.00 | 0.00 | 87 | 1018.9 |
| 20260906160220 | 22 | 102 | 4.8 | 9.7 | 0.00 | 0.00 | 0.00 | 87 | 1018.7 |
| 20260906155717 | 22 | 126 | 3.2 | 9.7 | 0.00 | 0.00 | 0.00 | 87 | 1018.6 |
| 20260906155213 | 22 | 93 | 4.8 | 8.0 | 0.00 | 0.00 | 0.00 | 87 | 1019.0 |
| 20260906154708 | 22 | 123 | 4.8 | 8.0 | 0.00 | 0.00 | 0.00 | 88 | 1018.7 |
| 20260906154209 | 22 | 122 | 4.8 | 8.0 | 0.00 | 0.00 | 0.00 | 88 | 1018.9 |
| 20260906153706 | 22 | 110 | 1.6 | 9.7 | 0.00 | 0.00 | 0.00 | 88 | 1019.0 |
| 20260906153202 | 22 | 100 | 3.2 | 9.7 | 0.00 | 0.00 | 0.00 | 88 | 1018.8 |
| 20260906152657 | 22 | 108 | 3.2 | 4.8 | 0.00 | 0.00 | 0.00 | 88 | 1018.8 |
| 20260906152157 | 22 | 183 | 1.6 | 4.8 | 0.00 | 0.00 | 0.00 | 88 | 1019.0 |
| 20260906151651 | 22 | 183 | 1.6 | 3.2 | 0.00 | 0.00 | 0.00 | 88 | 1019.2 |
| 20260906151147 | 22 | 115 | 1.6 | 4.8 | 0.00 | 0.00 | 0.00 | 89 | 1019.0 |
| 20260906150643 | 22 | 112 | 3.2 | 4.8 | 0.00 | 0.00 | 0.00 | 89 | 1019.0 |
| 20260906150138 | 22 | 147 | 1.6 | 4.8 | 0.00 | 0.00 | 0.00 | 90 | 1019.1 |
| 20260906145637 | 22 | 155 | 0.0 | 3.2 | 0.00 | 0.00 | 0.00 | 90 | 1018.9 |
| 20260906145131 | 22 | 143 | 0.0 | 3.2 | 0.00 | 0.00 | 0.00 | 90 | 1018.8 |
| 20260906144625 | 22 | 130 | 4.8 | 8.0 | 0.00 | 0.00 | 0.00 | 90 | 1018.7 |
| 20260906144121 | 22 | 109 | 3.2 | 8.0 | 0.00 | 0.00 | 0.00 | 90 | 1018.5 |
| 20260906143620 | 22 | 103 | 4.8 | 8.0 | 0.00 | 0.00 | 0.00 | 90 | 1018.6 |
| 20260906143117 | 22 | 155 | 0.0 | 3.2 | 0.00 | 0.00 | 0.00 | 90 | 1018.6 |
| 20260906142616 | 22 | 152 | 3.2 | 4.8 | 0.00 | 0.00 | 0.00 | 90 | 1018.7 |
| 20260906142112 | 22 | 0 | 3.2 | 9.7 | 0.00 | 0.00 | 0.00 | 90 | 1018.6 |
| 20260906141611 | 22 | 140 | 4.8 | 9.7 | 0.00 | 0.00 | 0.00 | 90 | 1018.6 |
| 20260906141106 | 22 | 127 | 4.8 | 9.7 | 0.00 | 0.00 | 0.00 | 90 | 1018.3 |
| 20260906140605 | 22 | 90 | 3.2 | 9.7 | 0.00 | 0.00 | 0.00 | 90 | 1018.6 |
| 20260906140100 | 22 | 158 | 4.8 | 11.3 | 0.00 | 0.00 | 0.00 | 90 | 1018.5 |
| 20260906135557 | 22 | 149 | 4.8 | 8.0 | 0.00 | 0.00 | 0.00 | 90 | 1018.4 |
| 20260906135053 | 22 | 138 | 3.2 | 8.0 | 0.00 | 0.00 | 0.00 | 90 | 1018.6 |
| 20260906134548 | 22 | 108 | 3.2 | 14.5 | 0.00 | 0.00 | 0.00 | 90 | 1018.4 |
| 20260906134043 | 22 | 155 | 3.2 | 8.0 | 0.00 | 0.00 | 0.00 | 90 | 1018.5 |
| 20260906133539 | 22 | 131 | 3.2 | 8.0 | 0.00 | 0.00 | 0.00 | 90 | 1018.3 |
| 20260906133034 | 21 | 67 | 3.2 | 4.8 | 0.00 | 0.00 | 0.00 | 90 | 1018.5 |
| 20260906132529 | 21 | 141 | 3.2 | 4.8 | 0.00 | 0.00 | 0.00 | 91 | 1018.6 |
| 20260906132025 | 21 | 83 | 4.8 | 8.0 | 0.00 | 0.00 | 0.00 | 91 | 1018.5 |
| 20260906131520 | 21 | 126 | 4.8 | 8.0 | 0.00 | 0.00 | 0.00 | 91 | 1018.3 |
| 20260906131016 | 21 | 101 | 3.2 | 4.8 | 0.00 | 0.00 | 0.00 | 91 | 1018.3 |
| 20260906130515 | 21 | 108 | 4.8 | 8.0 | 0.00 | 0.00 | 0.00 | 91 | 1018.1 |
| 20260906130010 | 21 | 121 | 4.8 | 4.8 | 0.00 | 0.00 | 0.00 | 91 | 1018.2 |
| 20260906125508 | 21 | 99 | 1.6 | 4.8 | 0.00 | 0.00 | 0.00 | 92 | 1018.2 |
| 20260906125007 | 21 | 105 | 3.2 | 4.8 | 0.00 | 0.00 | 0.00 | 91 | 1018.4 |
| 20260906124503 | 21 | 119 | 1.6 | 4.8 | 0.00 | 0.00 | 0.00 | 91 | 1018.4 |
| 20260906123957 | 21 | 121 | 3.2 | 8.0 | 0.00 | 0.00 | 0.00 | 92 | 1018.2 |
| 20260906123456 | 20 | 97 | 3.2 | 4.8 | 0.00 | 0.00 | 0.00 | 92 | 1018.1 |
| 20260906122956 | 20 | 136 | 3.2 | 8.0 | 0.00 | 0.00 | 0.00 | 92 | 1018.2 |
| 20260906122451 | 20 | 111 | 4.8 | 4.8 | 0.00 | 0.00 | 0.00 | 92 | 1017.9 |
| 20260906121948 | 20 | 126 | 3.2 | 4.8 | 0.00 | 0.00 | 0.00 | 92 | 1017.9 |
| 20260906121443 | 20 | 106 | 3.2 | 4.8 | 0.00 | 0.00 | 0.00 | 93 | 1018.0 |
| 20260906120940 | 20 | 137 | 3.2 | 4.8 | 0.00 | 0.00 | 0.00 | 93 | 1017.7 |
| 20260906120435 | 20 | 121 | 3.2 | 4.8 | 0.00 | 0.00 | 0.00 | 93 | 1018.0 |
| 20260906115931 | 20 | 136 | 3.2 | 3.2 | 0.00 | 0.00 | 0.00 | 93 | 1018.0 |
| 20260906115427 | 20 | 99 | 3.2 | 4.8 | 0.00 | 0.00 | 0.00 | 93 | 1018.0 |
| 20260906114927 | 20 | 139 | 0.0 | 4.8 | 0.00 | 0.00 | 0.00 | 93 | 1017.9 |
| 20260906114426 | 20 | 120 | 1.6 | 4.8 | 0.00 | 0.00 | 0.00 | 93 | 1017.9 |
| 20260906113922 | 20 | 118 | 1.6 | 4.8 | 0.00 | 0.00 | 0.00 | 93 | 1017.9 |
| 20260906113421 | 20 | 120 | 4.8 | 4.8 | 0.00 | 0.00 | 0.00 | 93 | 1018.0 |
| 20260906112917 | 20 | 125 | 1.6 | 3.2 | 0.00 | 0.00 | 0.00 | 93 | 1018.1 |
| 20260906112412 | 20 | 131 | 0.0 | 3.2 | 0.00 | 0.00 | 0.00 | 93 | 1018.2 |
| 20260906111907 | 20 | 124 | 1.6 | 4.8 | 0.00 | 0.00 | 0.00 | 93 | 1018.1 |
| 20260906111407 | 20 | 123 | 1.6 | 3.2 | 0.00 | 0.00 | 0.00 | 93 | 1018.2 |
| 20260906110902 | 20 | 135 | 1.6 | 3.2 | 0.00 | 0.00 | 0.00 | 93 | 1017.9 |
| 20260906110357 | 20 | 119 | 0.0 | 3.2 | 0.00 | 0.00 | 0.00 | 93 | 1017.9 |
| 20260906105856 | 20 | 127 | 1.6 | 3.2 | 0.00 | 0.00 | 0.00 | 93 | 1018.0 |
| 20260906105353 | 20 | 142 | 0.0 | 1.6 | 0.00 | 0.00 | 0.00 | 93 | 1017.8 |
| 20260906104848 | 20 | 110 | 1.6 | 3.2 | 0.00 | 0.00 | 0.00 | 93 | 1017.8 |
| 20260906104346 | 20 | 115 | 0.0 | 3.2 | 0.00 | 0.00 | 0.00 | 93 | 1017.9 |
| 20260906103845 | 20 | 94 | 1.6 | 3.2 | 0.00 | 0.00 | 0.00 | 93 | 1017.9 |
| 20260906103343 | 20 | 109 | 1.6 | 1.6 | 0.00 | 0.00 | 0.00 | 93 | 1017.9 |
| 20260906102840 | 20 | 108 | 1.6 | 3.2 | 0.00 | 0.00 | 0.00 | 93 | 1017.6 |
| 20260906102338 | 20 | 117 | 3.2 | 4.8 | 0.00 | 0.00 | 0.00 | 93 | 1017.8 |
| 20260906101834 | 20 | 106 | 4.8 | 4.8 | 0.00 | 0.00 | 0.00 | 93 | 1017.5 |
| 20260906101329 | 20 | 111 | 0.0 | 3.2 | 0.00 | 0.00 | 0.00 | 93 | 1017.5 |
| 20260906100825 | 20 | 91 | 1.6 | 4.8 | 0.00 | 0.00 | 0.00 | 93 | 1017.5 |
| 20260906100323 | 20 | 127 | 1.6 | 3.2 | 0.00 | 0.00 | 0.00 | 93 | 1017.5 |
| 20260906095819 | 20 | 135 | 1.6 | 3.2 | 0.00 | 0.00 | 0.00 | 93 | 1017.7 |
| 20260906095314 | 20 | 139 | 3.2 | 4.8 | 0.00 | 0.00 | 0.00 | 93 | 1017.4 |
| 20260906094813 | 20 | 127 | 1.6 | 1.6 | 0.00 | 0.00 | 0.00 | 93 | 1017.4 |
| 20260906094309 | 20 | 129 | 0.0 | 4.8 | 0.00 | 0.00 | 0.00 | 93 | 1017.1 |
| 20260906093805 | 20 | 106 | 1.6 | 3.2 | 0.00 | 0.00 | 0.00 | 94 | 1017.5 |
| 20260906093300 | 20 | 122 | 0.0 | 1.6 | 0.00 | 0.00 | 0.00 | 94 | 1017.4 |
| 20260906092755 | 20 | 134 | 1.6 | 3.2 | 0.00 | 0.00 | 0.00 | 94 | 1017.2 |
| 20260906092250 | 20 | 131 | 1.6 | 3.2 | 0.00 | 0.00 | 0.00 | 93 | 1017.0 |
| 20260906091745 | 20 | 130 | 1.6 | 3.2 | 0.00 | 0.00 | 0.00 | 93 | 1017.1 |
| 20260906091241 | 20 | 115 | 1.6 | 3.2 | 0.00 | 0.00 | 0.00 | 93 | 1017.0 |
| 20260906090738 | 20 | 133 | 1.6 | 3.2 | 0.00 | 0.00 | 0.00 | 93 | 1016.8 |
| 20260906090236 | 20 | 122 | 0.0 | 3.2 | 0.00 | 0.00 | 0.00 | 93 | 1016.9 |
| 20260906085736 | 20 | 121 | 1.6 | 3.2 | 0.00 | 0.00 | 0.00 | 93 | 1017.0 |
| 20260906085235 | 20 | 92 | 1.6 | 3.2 | 0.00 | 0.00 | 0.00 | 93 | 1016.9 |
| 20260906084730 | 21 | 94 | 1.6 | 3.2 | 0.00 | 0.00 | 0.00 | 93 | 1016.8 |
| 20260906084231 | 21 | 114 | 0.0 | 3.2 | 0.00 | 0.00 | 0.00 | 93 | 1017.0 |
| 20260906083725 | 21 | 148 | 0.0 | 1.6 | 0.00 | 0.00 | 0.00 | 93 | 1017.0 |
| 20260906083221 | 21 | 157 | 0.0 | 1.6 | 0.00 | 0.00 | 0.00 | 93 | 1017.4 |
| 20260906082716 | 21 | 155 | 0.0 | 1.6 | 0.00 | 0.00 | 0.00 | 92 | 1017.5 |
| 20260906082211 | 21 | 147 | 0.0 | 1.6 | 0.00 | 0.00 | 0.00 | 92 | 1016.9 |
| 20260906081707 | 21 | 134 | 1.6 | 3.2 | 0.00 | 0.00 | 0.00 | 92 | 1017.1 |
| 20260906081202 | 21 | 126 | 3.2 | 4.8 | 0.00 | 0.00 | 0.00 | 92 | 1016.9 |
| 20260906080658 | 21 | 68 | 1.6 | 3.2 | 0.00 | 0.00 | 0.00 | 92 | 1016.9 |
| 20260906080154 | 21 | 127 | 0.0 | 3.2 | 0.00 | 0.00 | 0.00 | 92 | 1016.9 |
| 20260906075654 | 21 | 109 | 1.6 | 3.2 | 0.00 | 0.00 | 0.00 | 92 | 1016.8 |
| 20260906075148 | 21 | 86 | 4.8 | 8.0 | 0.00 | 0.00 | 0.00 | 92 | 1016.5 |
| 20260906074644 | 21 | 123 | 1.6 | 4.8 | 0.00 | 0.00 | 0.00 | 92 | 1016.9 |
| 20260906074143 | 21 | 98 | 1.6 | 3.2 | 0.00 | 0.00 | 0.00 | 92 | 1017.1 |
| 20260906073637 | 21 | 125 | 1.6 | 3.2 | 0.00 | 0.00 | 0.00 | 92 | 1017.0 |
| 20260906073133 | 21 | 96 | 3.2 | 8.0 | 0.00 | 0.00 | 0.00 | 92 | 1017.1 |
| 20260906072628 | 21 | 98 | 3.2 | 4.8 | 0.00 | 0.00 | 0.00 | 92 | 1017.0 |
| 20260906072125 | 21 | 114 | 3.2 | 8.0 | 0.00 | 0.00 | 0.00 | 92 | 1017.0 |
| 20260906071621 | 21 | 108 | 1.6 | 4.8 | 0.00 | 0.00 | 0.00 | 92 | 1017.0 |
| 20260906071121 | 21 | 90 | 3.2 | 3.2 | 0.00 | 0.00 | 0.00 | 92 | 1016.8 |
| 20260906070617 | 21 | 140 | 4.8 | 4.8 | 0.00 | 0.00 | 0.00 | 92 | 1017.0 |
| 20260906070113 | 21 | 125 | 1.6 | 4.8 | 0.00 | 0.00 | 0.00 | 92 | 1017.0 |
| 20260906065612 | 21 | 139 | 0.0 | 3.2 | 0.00 | 0.00 | 0.00 | 92 | 1017.3 |
| 20260906065108 | 22 | 119 | 1.6 | 4.8 | 0.00 | 0.00 | 0.00 | 92 | 1017.2 |
| 20260906064603 | 22 | 123 | 0.0 | 3.2 | 0.00 | 0.00 | 0.00 | 92 | 1017.1 |
| 20260906064059 | 22 | 140 | 3.2 | 4.8 | 0.00 | 0.00 | 0.00 | 92 | 1017.0 |
| 20260906063554 | 22 | 130 | 3.2 | 8.0 | 0.00 | 0.00 | 0.00 | 91 | 1017.2 |
| 20260906063050 | 22 | 112 | 4.8 | 8.0 | 0.00 | 0.00 | 0.00 | 91 | 1017.5 |
| 20260906062545 | 22 | 155 | 3.2 | 3.2 | 0.00 | 0.00 | 0.00 | 91 | 1017.5 |
| 20260906062044 | 22 | 121 | 4.8 | 8.0 | 0.00 | 0.00 | 0.00 | 91 | 1017.3 |
| 20260906061541 | 22 | 80 | 3.2 | 9.7 | 0.00 | 0.00 | 0.00 | 91 | 1017.1 |
| 20260906061039 | 22 | 135 | 1.6 | 9.7 | 0.00 | 0.00 | 0.00 | 90 | 1017.2 |
| 20260906060536 | 22 | 86 | 3.2 | 11.3 | 0.00 | 0.00 | 0.00 | 90 | 1017.3 |
| 20260906060033 | 22 | 102 | 3.2 | 9.7 | 0.00 | 0.00 | 0.00 | 90 | 1017.4 |
| 20260906055529 | 22 | 96 | 3.2 | 4.8 | 0.00 | 0.00 | 0.00 | 90 | 1017.4 |
| 20260906055024 | 22 | 78 | 4.8 | 9.7 | 0.00 | 0.00 | 0.00 | 90 | 1017.3 |
| 20260906054524 | 22 | 109 | 4.8 | 8.0 | 0.00 | 0.00 | 0.00 | 90 | 1017.4 |
| 20260906054019 | 22 | 75 | 6.4 | 8.0 | 0.00 | 0.00 | 0.00 | 90 | 1017.5 |
| 20260906053515 | 22 | 89 | 4.8 | 4.8 | 0.00 | 0.00 | 0.00 | 90 | 1017.3 |
| 20260906053011 | 22 | 85 | 4.8 | 4.8 | 0.00 | 0.00 | 0.00 | 90 | 1017.2 |
| 20260906052507 | 22 | 97 | 3.2 | 4.8 | 0.00 | 0.00 | 0.00 | 90 | 1017.1 |
| 20260906052003 | 22 | 103 | 4.8 | 9.7 | 0.00 | 0.00 | 0.00 | 90 | 1017.3 |
| 20260906051459 | 22 | 90 | 3.2 | 8.0 | 0.00 | 0.00 | 0.00 | 91 | 1017.4 |
| 20260906050955 | 22 | 94 | 3.2 | 8.0 | 0.00 | 0.00 | 0.00 | 91 | 1017.4 |
| 20260906050454 | 22 | 114 | 3.2 | 8.0 | 0.00 | 0.00 | 0.00 | 91 | 1017.1 |
| 20260906045953 | 22 | 98 | 3.2 | 4.8 | 0.00 | 0.00 | 0.00 | 91 | 1017.2 |
| 20260906045452 | 22 | 75 | 1.6 | 4.8 | 0.00 | 0.00 | 0.00 | 91 | 1017.2 |
| 20260906044948 | 22 | 134 | 4.8 | 4.8 | 0.00 | 0.00 | 0.00 | 91 | 1017.1 |
| 20260906044443 | 22 | 91 | 4.8 | 8.0 | 0.00 | 0.00 | 0.00 | 91 | 1017.1 |
| 20260906043939 | 22 | 122 | 3.2 | 8.0 | 0.00 | 0.00 | 0.00 | 91 | 1017.2 |
| 20260906043435 | 22 | 71 | 4.8 | 8.0 | 0.00 | 0.00 | 0.00 | 90 | 1017.3 |
| 20260906042930 | 22 | 117 | 6.4 | 8.0 | 0.00 | 0.00 | 0.00 | 91 | 1017.4 |
| 20260906042429 | 22 | 119 | 1.6 | 4.8 | 0.00 | 0.00 | 0.00 | 91 | 1017.4 |
| 20260906041924 | 22 | 103 | 4.8 | 4.8 | 0.00 | 0.00 | 0.00 | 91 | 1017.0 |
| 20260906041420 | 22 | 107 | 4.8 | 4.8 | 0.00 | 0.00 | 0.00 | 91 | 1017.1 |
| 20260906040920 | 22 | 121 | 3.2 | 4.8 | 0.00 | 0.00 | 0.00 | 91 | 1017.4 |
| 20260906040415 | 22 | 69 | 3.2 | 4.8 | 0.00 | 0.00 | 0.00 | 91 | 1016.9 |
| 20260906035911 | 22 | 134 | 3.2 | 8.0 | 0.00 | 0.00 | 0.00 | 91 | 1016.9 |
| 20260906035406 | 23 | 159 | 3.2 | 8.0 | 0.00 | 0.00 | 0.00 | 90 | 1016.9 |
| 20260906034901 | 23 | 97 | 3.2 | 8.0 | 0.00 | 0.00 | 0.00 | 90 | 1017.2 |
| 20260906034355 | 23 | 104 | 1.6 | 4.8 | 0.00 | 0.00 | 0.00 | 90 | 1017.2 |
| 20260906033852 | 23 | 112 | 6.4 | 8.0 | 0.00 | 0.00 | 0.00 | 90 | 1017.3 |
| 20260906033351 | 23 | 106 | 3.2 | 4.8 | 0.00 | 0.00 | 0.00 | 90 | 1017.1 |
| 20260906032847 | 23 | 111 | 4.8 | 9.7 | 0.00 | 0.00 | 0.00 | 90 | 1017.1 |
| 20260906032343 | 23 | 105 | 1.6 | 3.2 | 0.00 | 0.00 | 0.00 | 90 | 1017.3 |
| 20260906031838 | 23 | 119 | 1.6 | 3.2 | 0.00 | 0.00 | 0.00 | 90 | 1017.3 |
| 20260906031333 | 23 | 98 | 4.8 | 8.0 | 0.00 | 0.00 | 0.00 | 90 | 1017.1 |
| 20260906030833 | 23 | 107 | 3.2 | 4.8 | 0.00 | 0.00 | 0.00 | 90 | 1017.1 |
| 20260906030329 | 23 | 119 | 3.2 | 4.8 | 0.00 | 0.00 | 0.00 | 90 | 1017.3 |
| 20260906025829 | 23 | 95 | 1.6 | 1.6 | 0.00 | 0.00 | 0.00 | 90 | 1017.3 |
| 20260906025323 | 23 | 117 | 1.6 | 3.2 | 0.00 | 0.00 | 0.00 | 90 | 1017.2 |
| 20260906024822 | 23 | 137 | 1.6 | 1.6 | 0.00 | 0.00 | 0.00 | 90 | 1017.4 |
| 20260906024321 | 23 | 100 | 1.6 | 1.6 | 0.00 | 0.00 | 0.00 | 89 | 1017.0 |
| 20260906023817 | 23 | 131 | 1.6 | 3.2 | 0.00 | 0.00 | 0.00 | 89 | 1017.2 |
| 20260906023312 | 23 | 115 | 0.0 | 1.6 | 0.00 | 0.00 | 0.00 | 90 | 1017.2 |
| 20260906022808 | 23 | 119 | 1.6 | 3.2 | 0.00 | 0.00 | 0.00 | 90 | 1017.4 |
| 20260906022306 | 23 | 120 | 1.6 | 3.2 | 0.00 | 0.00 | 0.00 | 90 | 1017.3 |
| 20260906021759 | 23 | 94 | 1.6 | 3.2 | 0.00 | 0.00 | 0.00 | 89 | 1017.2 |
| 20260906021258 | 23 | 111 | 1.6 | 3.2 | 0.00 | 0.00 | 0.00 | 89 | 1017.2 |
| 20260906020752 | 23 | 105 | 1.6 | 3.2 | 0.00 | 0.00 | 0.00 | 89 | 1017.1 |
| 20260906020252 | 23 | 115 | 1.6 | 3.2 | 0.00 | 0.00 | 0.00 | 89 | 1017.0 |
| 20260906015752 | 23 | 129 | 1.6 | 3.2 | 0.00 | 0.00 | 0.00 | 90 | 1016.9 |
| 20260906015251 | 23 | 121 | 1.6 | 3.2 | 0.00 | 0.00 | 0.00 | 89 | 1016.9 |
| 20260906014746 | 23 | 126 | 0.0 | 1.6 | 0.00 | 0.00 | 0.00 | 89 | 1016.8 |
| 20260906014241 | 23 | 144 | 1.6 | 1.6 | 0.00 | 0.00 | 0.00 | 89 | 1016.4 |
| 20260906013737 | 23 | 103 | 1.6 | 3.2 | 0.00 | 0.00 | 0.00 | 89 | 1016.3 |
| 20260906013237 | 23 | 86 | 1.6 | 3.2 | 0.00 | 0.00 | 0.00 | 89 | 1016.1 |
| 20260906012732 | 23 | 95 | 3.2 | 3.2 | 0.00 | 0.00 | 0.00 | 88 | 1016.0 |
| 20260906012227 | 23 | 115 | 1.6 | 8.0 | 0.00 | 0.00 | 0.00 | 88 | 1015.9 |
| 20260906011723 | 23 | 130 | 1.6 | 3.2 | 0.00 | 0.00 | 0.00 | 87 | 1016.1 |
| 20260906011223 | 24 | 146 | 1.6 | 1.6 | 0.00 | 0.00 | 0.00 | 87 | 1016.3 |
| 20260906010718 | 24 | 150 | 1.6 | 1.6 | 0.00 | 0.00 | 0.00 | 86 | 1016.1 |
| 20260906010214 | 24 | 86 | 1.6 | 4.8 | 0.00 | 0.00 | 0.00 | 86 | 1016.0 |
| 20260906005709 | 24 | 96 | 0.0 | 3.2 | 0.00 | 0.00 | 0.00 | 85 | 1016.2 |
| 20260906005208 | 25 | 122 | 1.6 | 4.8 | 0.00 | 0.00 | 0.00 | 84 | 1016.0 |
| 20260906004707 | 25 | 137 | 1.6 | 3.2 | 0.00 | 0.00 | 0.00 | 83 | 1016.0 |
| 20260906004202 | 25 | 107 | 1.6 | 4.8 | 0.00 | 0.00 | 0.00 | 83 | 1016.1 |
| 20260906003658 | 25 | 112 | 1.6 | 3.2 | 0.00 | 0.00 | 0.00 | 82 | 1016.0 |
| 20260906003154 | 25 | 116 | 3.2 | 3.2 | 0.00 | 0.00 | 0.00 | 82 | 1015.8 |
| 20260906002654 | 25 | 106 | 4.8 | 9.7 | 0.00 | 0.00 | 0.00 | 82 | 1015.9 |
| 20260906002148 | 25 | 144 | 4.8 | 8.0 | 0.00 | 0.00 | 0.00 | 81 | 1015.7 |
| 20260906001644 | 25 | 91 | 0.0 | 4.8 | 0.00 | 0.00 | 0.00 | 82 | 1015.9 |
| 20260906001143 | 25 | 122 | 1.6 | 8.0 | 0.00 | 0.00 | 0.00 | 82 | 1015.7 |
| 20260906000639 | 25 | 134 | 0.0 | 1.6 | 0.00 | 0.00 | 0.00 | 82 | 1015.7 |
| 20260906000134 | 25 | 115 | 3.2 | 8.0 | 0.00 | 0.00 | 0.00 | 82 | 1015.7 |
| 20260905235633 | 26 | 79 | 6.4 | 8.0 | 0.00 | 0.00 | 0.00 | 81 | 1015.7 |
| 20260905235128 | 26 | 101 | 3.2 | 8.0 | 0.00 | 0.00 | 0.00 | 81 | 1015.7 |
| 20260905234623 | 26 | 98 | 3.2 | 4.8 | 0.00 | 0.00 | 0.00 | 81 | 1015.7 |
| 20260905234120 | 26 | 144 | 0.0 | 4.8 | 0.00 | 0.00 | 0.00 | 81 | 1015.8 |
| 20260905233620 | 26 | 121 | 1.6 | 3.2 | 0.00 | 0.00 | 0.00 | 81 | 1015.7 |
| 20260905233114 | 26 | 108 | 1.6 | 4.8 | 0.00 | 0.00 | 0.00 | 81 | 1015.5 |
| 20260905232609 | 26 | 81 | 3.2 | 4.8 | 0.00 | 0.00 | 0.00 | 81 | 1015.5 |
| 20260905232105 | 26 | 136 | 3.2 | 3.2 | 0.00 | 0.00 | 0.00 | 80 | 1015.7 |
| 20260905231600 | 26 | 135 | 0.0 | 3.2 | 0.00 | 0.00 | 0.00 | 81 | 1015.7 |
| 20260905231057 | 26 | 122 | 3.2 | 4.8 | 0.00 | 0.00 | 0.00 | 80 | 1015.6 |
| 20260905230556 | 26 | 133 | 0.0 | 3.2 | 0.00 | 0.00 | 0.00 | 81 | 1015.6 |
| 20260905230055 | 26 | 156 | 0.0 | 3.2 | 0.00 | 0.00 | 0.00 | 81 | 1015.7 |
| 20260905225554 | 26 | 151 | 3.2 | 3.2 | 0.00 | 0.00 | 0.00 | 80 | 1015.4 |
| 20260905225049 | 26 | 151 | 1.6 | 3.2 | 0.00 | 0.00 | 0.00 | 79 | 1015.7 |
| 20260905224543 | 27 | 138 | 3.2 | 4.8 | 0.00 | 0.00 | 0.00 | 77 | 1015.4 |
| 20260905224043 | 27 | 133 | 6.4 | 11.3 | 0.00 | 0.00 | 0.00 | 76 | 1015.2 |
| 20260905223541 | 27 | 95 | 1.6 | 8.0 | 0.00 | 0.00 | 0.00 | 77 | 1015.2 |
| 20260905223037 | 27 | 120 | 4.8 | 9.7 | 0.00 | 0.00 | 0.00 | 77 | 1015.1 |
| 20260905222536 | 27 | 135 | 4.8 | 9.7 | 0.00 | 0.00 | 0.00 | 77 | 1015.3 |
| 20260905222032 | 27 | 117 | 8.0 | 11.3 | 0.00 | 0.00 | 0.00 | 76 | 1015.0 |
| 20260905221528 | 27 | 145 | 4.8 | 9.7 | 0.00 | 0.00 | 0.00 | 77 | 1015.2 |
| 20260905221024 | 27 | 97 | 3.2 | 9.7 | 0.00 | 0.00 | 0.00 | 78 | 1015.0 |
| 20260905220520 | 27 | 141 | 4.8 | 9.7 | 0.00 | 0.00 | 0.00 | 78 | 1015.0 |
| 20260905220015 | 27 | 87 | 4.8 | 11.3 | 0.00 | 0.00 | 0.00 | 78 | 1015.0 |
| 20260905215510 | 27 | 86 | 1.6 | 9.7 | 0.00 | 0.00 | 0.00 | 78 | 1015.0 |
| 20260905215006 | 27 | 113 | 8.0 | 9.7 | 0.00 | 0.00 | 0.00 | 78 | 1014.9 |
| 20260905214501 | 27 | 42 | 8.0 | 12.9 | 0.00 | 0.00 | 0.00 | 78 | 1014.9 |
| 20260905214001 | 27 | 90 | 6.4 | 11.3 | 0.00 | 0.00 | 0.00 | 78 | 1014.7 |
| 20260905213457 | 27 | 80 | 8.0 | 12.9 | 0.00 | 0.00 | 0.00 | 78 | 1015.2 |
| 20260905212953 | 27 | 43 | 4.8 | 12.9 | 0.00 | 0.00 | 0.00 | 78 | 1015.2 |
| 20260905212453 | 27 | 82 | 4.8 | 8.0 | 0.00 | 0.00 | 0.00 | 78 | 1015.2 |
| 20260905211952 | 27 | 97 | 9.7 | 12.9 | 0.00 | 0.00 | 0.00 | 78 | 1015.2 |
| 20260905211448 | 27 | 157 | 8.0 | 16.1 | 0.00 | 0.00 | 0.00 | 78 | 1015.2 |
| 20260905210943 | 27 | 112 | 8.0 | 9.7 | 0.00 | 0.00 | 0.00 | 79 | 1015.3 |
| 20260905210438 | 27 | 131 | 4.8 | 14.5 | 0.00 | 0.00 | 0.00 | 78 | 1015.3 |
| 20260905205938 | 27 | 111 | 3.2 | 8.0 | 0.00 | 0.00 | 0.00 | 78 | 1015.2 |
| 20260905205433 | 27 | 72 | 3.2 | 11.3 | 0.00 | 0.00 | 0.00 | 78 | 1015.1 |
| 20260905204931 | 27 | 78 | 6.4 | 11.3 | 0.00 | 0.00 | 0.00 | 78 | 1015.2 |
| 20260905204428 | 27 | 58 | 4.8 | 12.9 | 0.00 | 0.00 | 0.00 | 78 | 1015.0 |
| 20260905203926 | 28 | 70 | 4.8 | 8.0 | 0.00 | 0.00 | 0.00 | 76 | 1015.4 |
| 20260905203422 | 28 | 59 | 4.8 | 14.5 | 0.00 | 0.00 | 0.00 | 76 | 1015.4 |
| 20260905202917 | 27 | 94 | 6.4 | 12.9 | 0.00 | 0.00 | 0.00 | 77 | 1015.4 |
| 20260905202413 | 27 | 89 | 14.5 | 25.7 | 0.00 | 0.00 | 0.00 | 78 | 1015.7 |
| 20260905201908 | 27 | 102 | 9.7 | 20.9 | 0.00 | 0.00 | 0.00 | 78 | 1015.7 |
| 20260905201404 | 27 | 142 | 6.4 | 14.5 | 0.00 | 0.00 | 0.00 | 80 | 1015.4 |
| 20260905200903 | 27 | 139 | 11.3 | 16.1 | 0.00 | 0.00 | 0.00 | 79 | 1015.3 |
| 20260905200359 | 27 | 73 | 8.0 | 12.9 | 0.00 | 0.00 | 0.00 | 80 | 1015.4 |
| 20260905195857 | 27 | 46 | 4.8 | 11.3 | 0.00 | 0.00 | 0.00 | 80 | 1015.4 |
| 20260905195352 | 27 | 61 | 6.4 | 12.9 | 0.00 | 0.00 | 0.00 | 81 | 1015.4 |
| 20260905194849 | 26 | 131 | 8.0 | 11.3 | 0.00 | 0.00 | 0.00 | 81 | 1015.2 |
| 20260905194348 | 26 | 97 | 8.0 | 14.5 | 0.00 | 0.00 | 0.00 | 81 | 1015.4 |
| 20260905193847 | 26 | 95 | 1.6 | 11.3 | 0.00 | 0.00 | 0.00 | 81 | 1015.5 |
| 20260905193342 | 26 | 61 | 3.2 | 14.5 | 0.00 | 0.00 | 0.00 | 82 | 1015.5 |
| 20260905192838 | 26 | 96 | 3.2 | 9.7 | 0.00 | 0.00 | 0.00 | 82 | 1015.5 |
| 20260905192334 | 26 | 66 | 4.8 | 9.7 | 0.00 | 0.00 | 0.00 | 83 | 1015.3 |
| 20260905191833 | 25 | 73 | 3.2 | 11.3 | 0.00 | 0.00 | 0.00 | 83 | 1015.8 |
| 20260905191332 | 25 | 65 | 8.0 | 12.9 | 0.00 | 0.00 | 0.00 | 84 | 1015.5 |
| 20260905190831 | 25 | 99 | 4.8 | 12.9 | 0.00 | 0.00 | 0.00 | 83 | 1015.8 |
| 20260905190330 | 25 | 73 | 4.8 | 12.9 | 0.00 | 0.00 | 0.00 | 83 | 1015.6 |
| 20260905185830 | 25 | 59 | 8.0 | 12.9 | 0.00 | 0.00 | 0.00 | 83 | 1015.5 |
| 20260905185325 | 25 | 74 | 9.7 | 14.5 | 0.00 | 0.00 | 0.00 | 84 | 1015.4 |
| 20260905184824 | 25 | 91 | 4.8 | 11.3 | 0.00 | 0.00 | 0.00 | 84 | 1015.8 |
| 20260905184324 | 25 | 135 | 3.2 | 9.7 | 0.00 | 0.00 | 0.00 | 83 | 1015.7 |